Peru, IL

5:56 AM CDT on August 23, 2017 (GMT -0500)
Illinois Valley Regional-Duncan

Weather History for KVYS - February, 2013

Change the Weather History Date:

Friday, February 15, 2013

  Actual Average Record
Temperature  
Mean Temperature 27 °F -  
Max Temperature 33 °F 36 °F 68 °F (1976)
Min Temperature 21 °F 18 °F -6 °F (1986)
Degree Days  
Heating Degree Days 38    
Moisture  
Dew Point 18 °F    
Average Humidity 67    
Maximum Humidity 92    
Minimum Humidity 47    
Precipitation  
Precipitation 0.00 in - - ()
Sea Level Pressure  
Sea Level Pressure 30.16 in    
Wind  
Wind Speed 13 mph (WNW)    
Max Wind Speed 20 mph    
Max Gust Speed 24 mph    
Visibility 10 miles    
Events      
Averages and records for this station are not official NWS values.
T = Trace of Precipitation, MM = Missing Value Source: NWS Daily Summary

Daily Weather History Graph

Daily Weather History Graph

Search for Another Location

Airport or City:

Trip Planner

Search our weather history database for the weather conditions in past years. The results will help you decide how hot, cold, wet, or windy it might be!

Date:

Astronomy

Feb. 15, 2013 Rise Set
Actual Time 6:51 AM CST 5:30 PM CST
Civil Twilight 6:22 AM CST 5:59 PM CST
Nautical Twilight 5:50 AM CST 6:31 PM CST
Astronomical Twilight 5:18 AM CST 7:03 PM CST
Moon 9:22 AM CST (2/15) 11:36 PM CST (2/15)
Length of Visible Light 11h 36m
Length of Day
10h 39m
Waxing Crescent, 30% of the Moon is Illuminated
Feb 15
Waxing Crescent
Feb 17
First Quarter
Feb 25
Full
Mar 4
Last Quarter
Mar 11
New

Hourly Weather History & Observations

Time (CST) Temp. Windchill Dew Point Humidity Pressure Visibility Wind Dir Wind Speed Gust Speed Precip Events Conditions
12:15 AM 33.1 °F 26.1 °F 30.7 °F 91% 30.00 in 10.0 mi WNW 8.1 mph - N/A   Overcast
12:35 AM 33.1 °F 25.5 °F 30.6 °F 90% 30.01 in 10.0 mi WNW 9.2 mph - N/A   Overcast
12:55 AM 32.9 °F 25.3 °F 30.7 °F 92% 30.01 in 10.0 mi WNW 9.2 mph - N/A   Overcast
1:15 AM 32.7 °F 25.0 °F 30.2 °F 90% 30.02 in 10.0 mi WNW 9.2 mph - N/A   Overcast
1:35 AM 32.0 °F 23.0 °F 29.1 °F 89% 30.02 in 10.0 mi WNW 11.5 mph - N/A   Mostly Cloudy
1:55 AM 31.6 °F 22.6 °F 28.6 °F 88% 30.03 in 10.0 mi WNW 11.5 mph - N/A   Clear
2:15 AM 31.6 °F 22.6 °F 28.4 °F 88% 30.03 in 10.0 mi NW 11.5 mph - N/A   Mostly Cloudy
2:35 AM 32.0 °F 21.6 °F 28.2 °F 86% 30.04 in 10.0 mi WNW 15.0 mph - N/A   Overcast
2:55 AM 32.0 °F 22.5 °F 27.9 °F 85% 30.05 in 10.0 mi NW 12.7 mph - N/A   Overcast
3:15 AM 31.6 °F 22.1 °F 27.1 °F 83% 30.05 in 10.0 mi WNW 12.7 mph - N/A   Overcast
3:35 AM 31.5 °F 21.8 °F 27.0 °F 83% 30.05 in 10.0 mi WNW 12.7 mph - N/A   Overcast
3:55 AM 31.3 °F 20.7 °F 26.4 °F 82% 30.06 in 10.0 mi NW 15.0 mph - N/A   Overcast
4:15 AM 30.2 °F 20.2 °F 26.6 °F 86% 30.07 in 10.0 mi NW 12.7 mph - N/A   Overcast
4:35 AM 30.4 °F 19.1 °F 25.0 °F 80% 30.07 in 10.0 mi WNW 16.1 mph 21.9 mph N/A   Overcast
4:55 AM 30.2 °F 19.3 °F 24.4 °F 79% 30.08 in 10.0 mi WNW 15.0 mph 21.9 mph N/A   Overcast
5:15 AM 29.8 °F 18.4 °F 23.9 °F 79% 30.09 in 10.0 mi WNW 16.1 mph - N/A   Overcast
5:35 AM 29.1 °F 17.5 °F 23.0 °F 78% 30.11 in 10.0 mi WNW 16.1 mph 24.2 mph N/A   Overcast
5:55 AM 28.6 °F 16.0 °F 22.1 °F 77% 30.11 in 10.0 mi WNW 18.4 mph 24.2 mph N/A   Overcast
6:15 AM 27.5 °F 15.0 °F 20.3 °F 74% 30.12 in 10.0 mi West 17.3 mph 21.9 mph N/A   Overcast
6:35 AM 26.4 °F 14.5 °F 19.8 °F 76% 30.13 in 10.0 mi West 15.0 mph - N/A   Overcast
6:55 AM 25.7 °F 14.6 °F 19.6 °F 78% 30.14 in 10.0 mi West 12.7 mph 19.6 mph N/A   Overcast
7:15 AM 24.6 °F 10.9 °F 16.5 °F 71% 30.16 in 10.0 mi West 18.4 mph 21.9 mph N/A   Scattered Clouds
7:35 AM 23.9 °F 11.2 °F 15.1 °F 69% 30.17 in 10.0 mi WNW 15.0 mph - N/A   Clear
7:55 AM 24.6 °F 11.7 °F 15.3 °F 68% 30.18 in 10.0 mi WNW 16.1 mph - N/A   Clear
8:15 AM 24.6 °F 11.7 °F 13.8 °F 64% 30.19 in 10.0 mi West 16.1 mph - N/A   Clear
8:35 AM 24.8 °F 12.4 °F 14.0 °F 64% 30.20 in 10.0 mi West 15.0 mph - N/A   Clear
8:55 AM 25.2 °F 12.9 °F 14.2 °F 63% 30.21 in 10.0 mi WNW 15.0 mph - N/A   Clear
9:15 AM 25.7 °F 15.7 °F 14.2 °F 62% 30.21 in 10.0 mi WNW 10.4 mph - N/A   Clear
9:35 AM 26.4 °F 16.6 °F 14.7 °F 61% 30.21 in 10.0 mi WNW 10.4 mph - N/A   Clear
9:55 AM 27.1 °F 15.9 °F 14.9 °F 60% 30.21 in 10.0 mi WNW 13.8 mph - N/A   Clear
10:15 AM 27.9 °F 18.4 °F 14.2 °F 57% 30.21 in 10.0 mi WNW 10.4 mph - N/A   Clear
10:35 AM 28.2 °F 18.9 °F 14.5 °F 57% 30.21 in 10.0 mi WNW 10.4 mph - N/A   Clear
10:55 AM 29.1 °F 19.4 °F 15.4 °F 57% 30.21 in 10.0 mi WNW 11.5 mph 17.3 mph N/A   Clear
11:15 AM 29.1 °F 21.3 °F 15.1 °F 56% 30.21 in 10.0 mi WNW 8.1 mph 11.5 mph N/A   Clear
11:35 AM 30.0 °F 20.5 °F 16.2 °F 56% 30.21 in 10.0 mi WNW 11.5 mph 16.1 mph N/A   Clear
11:55 AM 30.2 °F 20.8 °F 15.8 °F 55% 30.21 in 10.0 mi WNW 11.5 mph - N/A   Clear
12:15 PM 30.2 °F 19.8 °F 16.3 °F 56% 30.20 in 10.0 mi WNW 13.8 mph - N/A   Clear
12:35 PM 30.9 °F 21.7 °F 17.1 °F 57% 30.19 in 10.0 mi WNW 11.5 mph 16.1 mph N/A   Clear
12:55 PM 31.1 °F 21.9 °F 17.1 °F 56% 30.19 in 10.0 mi WNW 11.5 mph 18.4 mph N/A   Clear
1:15 PM 31.1 °F 23.1 °F 16.7 °F 55% 30.18 in 10.0 mi WNW 9.2 mph - N/A   Clear
1:35 PM 32.0 °F 23.0 °F 17.1 °F 54% 30.18 in 10.0 mi WNW 11.5 mph 17.3 mph N/A   Scattered Clouds
1:55 PM 32.0 °F 21.2 °F 16.0 °F 52% 30.18 in 10.0 mi WNW 16.1 mph - N/A   Scattered Clouds
2:15 PM 32.0 °F 22.1 °F 16.3 °F 52% 30.17 in 10.0 mi WNW 13.8 mph - N/A   Clear
2:35 PM 32.0 °F 22.1 °F 15.8 °F 51% 30.17 in 10.0 mi WNW 13.8 mph 17.3 mph N/A   Scattered Clouds
2:55 PM 32.2 °F 22.7 °F 14.0 °F 47% 30.18 in 10.0 mi WNW 12.7 mph 20.7 mph N/A   Mostly Cloudy
3:15 PM 31.5 °F 21.4 °F 13.8 °F 48% 30.18 in 10.0 mi WNW 13.8 mph 18.4 mph N/A   Scattered Clouds
3:35 PM 31.5 °F 21.8 °F 15.3 °F 51% 30.18 in 10.0 mi WNW 12.7 mph 18.4 mph N/A   Scattered Clouds
3:55 PM 30.9 °F 20.7 °F 14.5 °F 51% 30.18 in 10.0 mi WNW 13.8 mph - N/A   Scattered Clouds
4:15 PM 31.1 °F 22.4 °F 16.2 °F 54% 30.18 in 10.0 mi WNW 10.4 mph 16.1 mph N/A   Mostly Cloudy
4:35 PM 30.2 °F 18.9 °F 16.3 °F 56% 30.18 in 10.0 mi WNW 16.1 mph - N/A   Mostly Cloudy
4:55 PM 29.8 °F 17.7 °F 14.4 °F 53% 30.18 in 10.0 mi WNW 18.4 mph - N/A   Mostly Cloudy
5:15 PM 28.9 °F 17.3 °F 13.6 °F 53% 30.19 in 10.0 mi WNW 16.1 mph - N/A   Scattered Clouds
5:35 PM 28.4 °F 18.0 °F 13.6 °F 54% 30.19 in 10.0 mi WNW 12.7 mph - N/A   Mostly Cloudy
5:55 PM 27.9 °F 16.3 °F 14.0 °F 56% 30.20 in 10.0 mi WNW 15.0 mph 18.4 mph N/A   Scattered Clouds
6:15 PM 27.1 °F 14.1 °F 16.9 °F 65% 30.20 in 10.0 mi WNW 18.4 mph - N/A   Clear
6:35 PM 26.2 °F 13.8 °F 16.5 °F 67% 30.20 in 10.0 mi WNW 16.1 mph 24.2 mph N/A   Clear
6:55 PM 26.1 °F 14.0 °F 17.1 °F 69% 30.20 in 10.0 mi WNW 15.0 mph - N/A   Clear
7:15 PM 25.7 °F 14.6 °F 16.7 °F 69% 30.21 in 10.0 mi WNW 12.7 mph - N/A   Clear
7:35 PM 25.7 °F 15.1 °F 16.3 °F 68% 30.20 in 10.0 mi West 11.5 mph - N/A   Mostly Cloudy
7:55 PM 26.1 °F 15.6 °F 16.3 °F 67% 30.20 in 10.0 mi WNW 11.5 mph - N/A   Overcast
8:15 PM 26.1 °F 12.3 °F 16.0 °F 66% 30.20 in 10.0 mi NW 19.6 mph 23.0 mph N/A   Overcast
8:35 PM 24.8 °F 12.9 °F 15.4 °F 68% 30.20 in 10.0 mi WNW 13.8 mph - N/A   Scattered Clouds
8:55 PM 24.6 °F 14.4 °F 16.3 °F 71% 30.20 in 10.0 mi WNW 10.4 mph - N/A   Scattered Clouds
9:15 PM 24.6 °F 15.8 °F 16.7 °F 72% 30.20 in 10.0 mi WNW 8.1 mph - N/A   Scattered Clouds
9:35 PM 24.8 °F 13.4 °F 16.9 °F 72% 30.20 in 10.0 mi NW 12.7 mph 16.1 mph N/A   Mostly Cloudy
9:55 PM 24.6 °F 11.7 °F 14.2 °F 65% 30.20 in 10.0 mi WNW 16.1 mph 23.0 mph N/A   Overcast
10:15 PM 23.5 °F 10.8 °F 14.0 °F 67% 30.20 in 10.0 mi NW 15.0 mph - N/A   Scattered Clouds
10:35 PM 23.2 °F 10.3 °F 13.3 °F 66% 30.20 in 10.0 mi NW 15.0 mph 23.0 mph N/A   Mostly Cloudy
10:55 PM 22.8 °F 10.9 °F 13.3 °F 67% 30.20 in 10.0 mi NW 12.7 mph - N/A   Scattered Clouds
11:15 PM 22.1 °F 8.9 °F 12.2 °F 66% 30.20 in 10.0 mi NW 15.0 mph 23.0 mph N/A   Scattered Clouds
11:35 PM 21.6 °F 8.8 °F 11.1 °F 64% 30.19 in 10.0 mi WNW 13.8 mph - N/A   Clear
11:55 PM 21.2 °F 7.8 °F 12.4 °F 69% 30.19 in 10.0 mi WNW 15.0 mph - N/A   Scattered Clouds